User: anonymous   Login
Location: Newark
(54.6833°N, 25.2833°E)
Time: 01:24:44
(UTC+00:00)
Language:

BEESAT 2 - Orbit

View from above orbital plane
View from above orbital plane
View from above satellite
View from above satellite

Ground track
Ground track

The orbit data is extracted from the following two-line orbital elements,

1 39136U 13015G   20297.25599663 +.00001857 +00000-0 +99838-4 0  9999
2 39136 064.8748 254.0296 0035186 266.4050 093.3052 15.17847266414902
Epoch (UTC): 23 October 2020 06:08:38
Eccentricity: 0.0035186
inclination: 64.8748°
perigee height: 488 km
apogee height: 536 km
right ascension of ascending node: 254.0296°
argument of perigee: 266.4050°
revolutions per day: 15.17847266
mean anomaly at epoch: 93.3052°
orbit number at epoch: 41490

The dashed part of the orbit path shows where the satellite is in the earth's shadow,  

DLR